This demonstration page uses our WeatherBlox Daily Observations layout. Learn more.

Left ArrowRight Arrow

Hourly Observations for August 23, 2020

Temp ( °F °C ) Dew Point ( °F °C ) Humidity (%) Winds ( mph kmh ) Pressure ( in mb ) Visibility ( mi km ) Precip ( " mm )
12:52 am 00:52 Clear 69 20.6 60 15.6 73 73 SSE 3 6 29.93 1014 10 16 0.00 0.00
1:52 am 01:52 Clear 68 20 60 15.6 76 76 SW 6 9 29.94 1014 10 16 0.00 0.00
2:52 am 02:52 Clear 67 19.4 60 15.6 79 79 Calm 29.95 1014 10 16 0.00 0.00
3:52 am 03:52 Clear 65 18.3 60 15.6 84 84 Calm 29.96 1015 10 16 0.00 0.00
4:52 am 04:52 Clear 63 17.2 59 15 87 87 SSE 5 7 29.97 1015 10 16 0.00 0.00
5:52 am 05:52 Clear 64 17.8 59 15 84 84 SSE 3 6 29.98 1015 10 16 0.00 0.00
6:52 am 06:52 Sunny 64 17.8 59 15 84 84 SSE 5 7 30.00 1016 10 16 0.00 0.00
7:52 am 07:52 Sunny 68 20 61 16.1 78 78 S 3 6 30.01 1016 10 16 0.00 0.00
8:52 am 08:52 Sunny 76 24.4 62 16.7 62 62 SW 9 15 30.03 1017 10 16 0.00 0.00
9:52 am 09:52 Sunny 82 27.8 64 17.8 55 55 W 9 15 30.04 1017 10 16 0.00 0.00
10:52 am 10:52 Sunny 85 29.4 64 17.8 50 50 WSW 14 22 30.05 1018 10 16 0.00 0.00
11:52 am 11:52 Sunny 87 30.6 63 17.2 45 45 W 12 19 30.03 1017 10 16 0.00 0.00
12:52 pm 12:52 Sunny 89 31.7 62 16.7 41 41 VRB 7 11 30.02 1017 10 16 0.00 0.00
1:52 pm 13:52 Mostly Sunny 90 32.2 62 16.7 39 39 VRB 3 6 30.01 1016 10 16 0.00 0.00
2:52 pm 14:52 Sunny 91 32.8 60 15.6 35 35 VRB 5 7 29.99 1016 10 16 0.00 0.00
3:52 pm 15:52 Sunny 93 33.9 60 15.6 33 33 NNW 7 11 29.98 1015 10 16 0.00 0.00
4:52 pm 16:52 Mostly Sunny 93 33.9 59 15 32 32 VRB 5 7 29.98 1015 10 16 0.00 0.00
5:52 pm 17:52 Sunny 91 32.8 61 16.1 37 37 W 7 11 29.97 1015 10 16 0.00 0.00
6:52 pm 18:52 Sunny 87 30.6 62 16.7 43 43 NW 7 11 29.98 1015 10 16 0.00 0.00
7:52 pm 19:52 Sunny 86 30 63 17.2 46 46 Calm 29.98 1015 10 16 0.00 0.00
8:52 pm 20:52 Clear 78 25.6 64 17.8 62 62 Calm 30.00 1016 10 16 0.00 0.00
9:52 pm 21:52 Clear 74 23.3 64 17.8 71 71 Calm 30.01 1016 10 16 0.00 0.00
10:52 pm 22:52 Clear 73 22.8 65 18.3 76 76 Calm 30.01 1016 10 16 0.00 0.00
11:52 pm 23:52 Clear 73 22.8 65 18.3 76 76 Calm 30.01 1016 10 16 0.00 0.00

Powered by AerisWeather